Temp
-9 -9 -9 -10 -10 -10 -9 -8 -8 -9 -9 -9 -9 -9 -9 -9 -9 -9 -9 -9 -9 -8 -8 -8 -8 -8 -8 -8 -7 -7 -8 -7 -8 -8 -8 -7 -7 -6 -5 -4 -3 -3 -3 -4 -4 -4 -3 -0 0 -0 -0 -0 -0 2
-9 -9 -9 -10 -9 -9 -10 -9 -9 -9 -9 -9 -9 -9 -9 -9 -9 -9 -9 -9 -8 -8 -8 -8 -8 -8 -8 -7 -7 -8 -7 -6 -6 -6 -7 -7 -6 -5 -5 -4 -4 -4 -3 -2 -2 -1 -0 -0 -0 -1 -1 -1 -0 0
-9 -9 -10 -10 -10 -10 -9 -9 -9 -8 -9 -9 -9 -10 -10 -9 -9 -9 -9 -8 -8 -8 -9 -8 -8 -8 -8 -7 -8 -7 -7 -7 -7 -6 -6 -6 -6 -5 -5 -5 -4 -4 -3 -3 -2 -2 -1 0 0 -1 -1 -0 -0 0
-9 -9 -9 -9 -9 -9 -9 -9 -9 -9 -9 -9 -9 -9 -9 -9 -9 -9 -9 -9 -9 -9 -9 -9 -8 -8 -8 -7 -8 -7 -7 -7 -7 -7 -6 -6 -6 -5 -5 -5 -5 -4 -4 -3 -3 -3 -2 -2 -2 -1 -1 -0 0 -0
-9 -9 -9 -9 -10 -9 -9 -9 -9 -9 -9 -9 -8 -9 -9 -10 -10 -10 -10 -10 -9 -10 -9 -9 -9 -8 -8 -7 -7 -7 -7 -7 -7 -7 -7 -7 -6 -6 -6 -5 -5 -5 -4 -4 -3 -3 -3 -2 -2 -2 -1 -1 -1 -0
-8 -9 -9 -9 -9 -9 -9 -9 -9 -9 -9 -9 -9 -9 -9 -10 -10 -10 -10 -10 -9 -10 -10 -10 -9 -8 -8 -7 -6 -7 -7 -7 -7 -7 -7 -7 -6 -6 -6 -6 -6 -5 -5 -4 -4 -3 -3 -2 -2 -2 -1 -1 -1 -1
-9 -9 -9 -9 -9 -9 -9 -9 -8 -9 -9 -9 -9 -9 -9 -10 -10 -10 -10 -9 -8 -10 -10 -10 -9 -8 -8 -7 -7 -7 -7 -7 -7 -7 -6 -6 -6 -7 -6 -6 -6 -6 -5 -5 -4 -4 -3 -3 -3 -2 -3 -3 -3 -1
-9 -9 -8 -8 -9 -9 -9 -9 -10 -10 -9 -9 -9 -9 -9 -10 -9 -9 -9 -9 -8 -9 -9 -9 -8 -8 -8 -7 -8 -7 -7 -7 -7 -7 -6 -6 -7 -7 -7 -6 -5 -5 -6 -6 -5 -5 -5 -4 -3 -3 -4 -4 -3 -2
-9 -9 -9 -9 -9 -9 -9 -10 -10 -10 -9 -9 -9 -9 -9 -9 -9 -9 -9 -8 -8 -9 -9 -9 -9 -7 -7 -7 -8 -8 -8 -7 -7 -7 -7 -7 -7 -7 -6 -6 -6 -6 -5 -5 -5 -5 -5 -4 -5 -4 -4 -3 -2 -2
-9 -9 -9 -9 -9 -9 -9 -9 -10 -10 -10 -9 -9 -9 -10 -9 -9 -9 -9 -9 -9 -9 -9 -8 -8 -7 -7 -7 -8 -7 -7 -7 -7 -7 -7 -8 -8 -7 -6 -6 -7 -6 -6 -5 -4 -5 -5 -5 -5 -4 -4 -3 -3 -2
-9 -9 -9 -9 -9 -9 -9 -9 -9 -9 -9 -9 -9 -9 -9 -9 -9 -9 -9 -9 -8 -9 -8 -8 -7 -7 -7 -7 -7 -7 -7 -7 -7 -7 -8 -8 -8 -8 -8 -8 -7 -7 -6 -5 -5 -4 -5 -5 -4 -4 -4 -4 -4 -4
-9 -9 -9 -9 -9 -10 -9 -9 -9 -9 -9 -9 -8 -9 -9 -9 -9 -9 -9 -9 -8 -7 -8 -7 -6 -7 -7 -7 -7 -7 -7 -7 -7 -8 -7 -8 -9 -8 -8 -8 -8 -7 -7 -6 -5 -5 -5 -5 -4 -4 -4 -5 -5 -5
-9 -9 -9 -9 -9 -9 -9 -9 -9 -8 -9 -9 -9 -9 -8 -8 -9 -9 -10 -9 -7 -7 -7 -7 -7 -7 -7 -7 -7 -7 -7 -8 -8 -8 -9 -10 -10 -10 -9 -9 -9 -8 -8 -7 -6 -6 -5 -5 -4 -4 -4 -5 -6 -6
-9 -9 -9 -9 -9 -9 -9 -9 -9 -9 -8 -8 -7 -7 -8 -8 -9 -9 -9 -9 -8 -8 -7 -8 -7 -7 -8 -8 -7 -7 -8 -8 -8 -10 -12 -12 -11 -11 -10 -10 -9 -9 -8 -8 -7 -7 -7 -7 -7 -7 -8 -8 -8 -8
-10 -9 -9 -9 -9 -9 -9 -9 -8 -8 -7 -7 -7 -8 -10 -10 -10 -10 -10 -9 -8 -8 -8 -8 -8 -8 -8 -8 -8 -8 -9 -10 -12 -15 -14 -13 -13 -12 -11 -11 -10 -10 -10 -9 -9 -9 -9 -9 -9 -9 -10 -10 -10 -10
-9 -9 -9 -9 -9 -9 -8 -8 -8 -7 -6 -7 -9 -12 -11 -11 -10 -10 -9 -9 -9 -8 -8 -9 -9 -8 -8 -9 -10 -10 -11 -13 -15 -15 -15 -15 -15 -14 -13 -12 -12 -12 -12 -12 -12 -12 -11 -11 -12 -11 -12 -12 -12 -12
-10 -10 -9 -9 -9 -9 -9 -8 -8 -7 -8 -10 -11 -10 -10 -10 -9 -9 -9 -8 -8 -8 -8 -8 -8 -9 -11 -12 -12 -13 -14 -15 -15 -15 -15 -15 -15 -14 -14 -14 -14 -14 -13 -13 -13 -13 -13 -13 -13 -13 -13 -13 -13 -13
-10 -10 -10 -10 -9 -9 -9 -9 -8 -8 -9 -10 -10 -9 -9 -9 -9 -8 -8 -8 -8 -8 -9 -8 -10 -11 -12 -14 -15 -15 -15 -15 -15 -15 -15 -15 -15 -14 -14 -14 -14 -14 -14 -14 -14 -14 -14 -14 -14 -13 -14 -14 -14 -14
-11 -10 -10 -10 -9 -9 -9 -9 -8 -8 -10 -10 -9 -8 -9 -9 -8 -8 -8 -8 -9 -8 -9 -10 -11 -13 -14 -14 -14 -14 -14 -14 -14 -14 -14 -14 -14 -14 -14 -14 -14 -14 -14 -14 -14 -14 -14 -14 -14 -14 -14 -14 -14 -15
-11 -11 -10 -10 -9 -9 -9 -9 -9 -9 -10 -10 -10 -9 -9 -8 -9 -9 -8 -8 -9 -9 -9 -11 -12 -13 -13 -13 -13 -14 -14 -14 -14 -14 -14 -14 -14 -14 -15 -15 -15 -15 -15 -15 -15 -15 -15 -15 -15 -15 -15 -16 -16 -15
-11 -11 -10 -9 -9 -9 -10 -10 -10 -11 -11 -11 -11 -10 -9 -9 -9 -8 -8 -9 -8 -8 -11 -12 -12 -13 -13 -13 -13 -14 -14 -14 -15 -15 -15 -15 -15 -15 -16 -16 -16 -16 -16 -16 -16 -16 -16 -16 -16 -16 -16 -16 -16 -16
-11 -12 -11 -10 -10 -9 -12 -12 -10 -10 -11 -11 -10 -10 -11 -11 -10 -9 -9 -7 -9 -12 -12 -13 -13 -13 -13 -13 -14 -14 -15 -15 -15 -16 -16 -16 -16 -16 -16 -17 -17 -17 -17 -17 -17 -17 -17 -17 -17 -17 -17 -17 -17 -17
-10 -10 -10 -9 -10 -12 -13 -13 -12 -12 -13 -12 -12 -12 -11 -10 -10 -9 -9 -9 -10 -11 -12 -12 -13 -13 -14 -14 -14 -15 -15 -15 -15 -16 -16 -17 -17 -17 -17 -17 -17 -17 -17 -17 -17 -17 -17 -17 -17 -17 -17 -17 -18 -18
-8 -7 -7 -8 -10 -11 -12 -12 -11 -11 -11 -11 -11 -11 -10 -10 -10 -10 -9 -10 -11 -11 -12 -13 -13 -14 -15 -15 -15 -16 -16 -17 -17 -17 -17 -17 -17 -17 -18 -18 -18 -18 -18 -18 -18 -18 -18 -18 -18 -18 -18 -19 -19 -19
-7 -7 -8 -8 -9 -10 -11 -10 -10 -10 -9 -9 -9 -10 -10 -10 -10 -10 -11 -11 -12 -12 -13 -14 -15 -15 -16 -16 -17 -17 -17 -17 -18 -18 -18 -18 -18 -18 -18 -18 -18 -19 -19 -19 -19 -19 -19 -19 -19 -20 -20 -20 -20 -20
-6 -6 -6 -8 -8 -8 -9 -9 -9 -8 -9 -9 -9 -10 -10 -10 -11 -11 -12 -12 -13 -13 -14 -15 -15 -15 -16 -17 -17 -18 -18 -18 -18 -18 -19 -19 -19 -19 -19 -19 -19 -19 -19 -19 -19 -20 -20 -20 -20 -20 -20 -20 -20 -20
-6 -6 -6 -6 -7 -7 -7 -8 -8 -8 -8 -9 -9 -9 -10 -10 -10 -11 -12 -12 -13 -13 -14 -15 -15 -16 -16 -17 -17 -18 -18 -18 -19 -19 -19 -19 -19 -20 -20 -20 -20 -20 -20 -20 -20 -20 -20 -20 -20 -21 -21 -21 -21 -21
-5 -6 -6 -6 -6 -7 -7 -8 -8 -8 -8 -8 -9 -9 -10 -10 -10 -11 -12 -13 -13 -14 -14 -15 -16 -16 -17 -17 -18 -18 -19 -19 -19 -19 -20 -20 -20 -20 -20 -20 -20 -20 -21 -21 -21 -21 -21 -21 -21 -21 -21 -21 -21 -21
-6 -6 -6 -7 -7 -7 -7 -7 -7 -7 -8 -8 -8 -9 -9 -10 -11 -12 -12 -13 -14 -14 -15 -15 -16 -17 -17 -18 -18 -19 -19 -19 -19 -19 -20 -20 -20 -20 -20 -21 -21 -21 -21 -21 -21 -21 -21 -21 -21 -21 -21 -21 -21 -22
-7 -6 -7 -7 -7 -7 -7 -7 -8 -8 -9 -9 -9 -10 -10 -11 -12 -12 -13 -14 -14 -15 -15 -16 -17 -17 -18 -18 -19 -19 -19 -20 -20 -20 -20 -20 -20 -21 -21 -21 -21 -21 -21 -21 -21 -21 -21 -21 -21 -21 -21 -21 -22 -22
-7 -8 -8 -7 -7 -8 -8 -9 -10 -10 -10 -10 -11 -12 -12 -12 -12 -13 -14 -14 -15 -16 -16 -17 -17 -18 -18 -19 -19 -19 -20 -20 -20 -20 -20 -21 -21 -21 -21 -21 -21 -21 -21 -21 -21 -21 -22 -22 -22 -22 -22 -22 -22 -22
-8 -8 -8 -7 -8 -9 -10 -10 -11 -11 -11 -12 -12 -12 -13 -13 -13 -14 -14 -15 -16 -16 -17 -17 -18 -18 -19 -19 -20 -20 -20 -20 -20 -20 -21 -21 -21 -21 -21 -21 -21 -21 -21 -21 -21 -21 -22 -22 -22 -22 -22 -22 -22 -22
-9 -9 -9 -8 -10 -11 -11 -11 -12 -13 -13 -13 -13 -13 -13 -14 -14 -15 -15 -16 -16 -17 -17 -18 -18 -19 -19 -20 -20 -20 -20 -20 -21 -21 -21 -21 -21 -21 -21 -21 -21 -22 -22 -22 -22 -22 -22 -22 -22 -22 -22 -22 -22 -23
Height
2836 2831 2826 2821 2817 2814 2811 2811 2813 2816 2819 2824 2830 2837 2845 2854 2863 2872 2878 2886 2895 2901 2909 2911 2918 2924 2932 2939 2944 2952 2958 2959 2962 2965 2968 2970 2970 2972 2972 2974 2975 2976 2978 2980 2983 2984 2978 2974 2974 2975 2976 2972 2969 2969
2828 2823 2818 2813 2809 2806 2802 2801 2803 2806 2811 2816 2822 2828 2837 2847 2856 2865 2871 2879 2887 2898 2903 2907 2914 2920 2925 2933 2942 2943 2949 2953 2955 2957 2961 2964 2965 2966 2967 2969 2971 2974 2973 2975 2977 2971 2971 2970 2970 2971 2971 2972 2968 2969
2822 2816 2811 2807 2801 2796 2793 2793 2794 2798 2802 2808 2816 2823 2831 2842 2851 2860 2866 2874 2882 2891 2899 2905 2909 2915 2919 2927 2933 2937 2941 2947 2950 2955 2957 2958 2960 2961 2962 2964 2966 2968 2970 2969 2970 2965 2968 2967 2967 2966 2967 2966 2965 2965
2818 2812 2806 2800 2794 2790 2786 2785 2786 2790 2796 2802 2810 2818 2828 2838 2847 2854 2862 2869 2878 2885 2893 2899 2906 2910 2918 2921 2926 2931 2936 2941 2947 2950 2951 2953 2955 2956 2958 2960 2961 2965 2965 2965 2960 2962 2961 2961 2963 2959 2958 2958 2957 2958
2815 2809 2803 2796 2789 2784 2780 2778 2779 2782 2789 2796 2805 2815 2825 2835 2845 2854 2863 2869 2876 2890 2892 2896 2903 2910 2913 2918 2922 2926 2931 2936 2940 2944 2945 2949 2950 2953 2952 2953 2953 2957 2958 2959 2955 2957 2955 2956 2957 2953 2952 2951 2952 2952
2815 2808 2802 2793 2786 2781 2776 2772 2773 2776 2784 2794 2803 2813 2826 2835 2845 2855 2863 2868 2876 2884 2890 2894 2896 2899 2907 2914 2917 2921 2926 2930 2935 2938 2940 2943 2945 2949 2947 2945 2946 2949 2950 2950 2949 2950 2950 2949 2950 2947 2946 2946 2947 2949
2817 2810 2803 2795 2788 2782 2774 2766 2763 2770 2782 2793 2805 2815 2826 2837 2845 2851 2860 2865 2874 2882 2888 2892 2894 2895 2901 2908 2911 2913 2919 2922 2929 2931 2935 2938 2941 2942 2940 2938 2938 2940 2942 2943 2942 2942 2944 2943 2943 2943 2942 2941 2943 2944
2821 2816 2810 2801 2794 2787 2778 2769 2765 2773 2786 2797 2809 2820 2831 2841 2851 2858 2864 2870 2876 2882 2888 2890 2890 2890 2895 2901 2906 2912 2915 2920 2923 2927 2930 2934 2936 2936 2935 2932 2933 2934 2935 2936 2937 2936 2937 2937 2936 2936 2937 2937 2938 2938
2826 2822 2817 2812 2805 2798 2792 2787 2785 2790 2798 2807 2816 2826 2834 2843 2853 2858 2867 2873 2877 2884 2885 2886 2887 2885 2891 2897 2904 2910 2915 2919 2921 2923 2926 2931 2929 2929 2926 2925 2927 2929 2929 2930 2930 2930 2930 2930 2929 2931 2932 2932 2931 2931
2831 2828 2825 2821 2817 2814 2809 2806 2805 2808 2812 2817 2825 2832 2842 2851 2859 2865 2870 2875 2880 2882 2884 2885 2884 2884 2891 2895 2902 2909 2911 2916 2917 2920 2922 2923 2921 2920 2920 2920 2922 2923 2923 2923 2922 2923 2923 2922 2923 2924 2925 2925 2925 2925
2835 2833 2832 2830 2827 2825 2823 2823 2822 2824 2825 2830 2835 2840 2850 2857 2864 2869 2873 2876 2879 2881 2880 2879 2884 2887 2891 2896 2901 2906 2908 2912 2914 2917 2918 2915 2913 2911 2911 2913 2915 2916 2917 2917 2917 2916 2915 2916 2917 2917 2917 2917 2917 2917
2839 2839 2838 2837 2836 2835 2834 2834 2836 2837 2838 2840 2840 2848 2856 2862 2867 2869 2871 2874 2876 2879 2881 2883 2886 2890 2894 2898 2902 2906 2908 2910 2910 2912 2912 2907 2905 2907 2907 2908 2909 2910 2910 2910 2911 2910 2909 2909 2909 2909 2909 2909 2909 2907
2843 2843 2842 2842 2842 2842 2842 2842 2842 2844 2848 2850 2855 2860 2863 2867 2868 2869 2871 2873 2876 2879 2883 2885 2889 2892 2896 2899 2901 2905 2906 2908 2907 2905 2902 2902 2903 2903 2903 2904 2904 2905 2905 2905 2905 2904 2903 2903 2902 2902 2901 2901 2900 2898
2844 2845 2845 2846 2845 2846 2847 2849 2851 2853 2856 2856 2858 2861 2864 2866 2867 2870 2872 2874 2876 2879 2883 2886 2889 2892 2895 2899 2901 2902 2902 2902 2900 2899 2899 2901 2900 2900 2900 2899 2900 2900 2900 2900 2899 2899 2898 2898 2897 2896 2896 2896 2895 2894
2847 2847 2847 2849 2850 2850 2852 2853 2855 2858 2858 2859 2860 2862 2865 2867 2870 2872 2875 2877 2879 2881 2884 2887 2890 2893 2895 2897 2897 2897 2897 2895 2896 2897 2897 2898 2898 2898 2897 2897 2896 2896 2896 2896 2896 2896 2895 2895 2894 2894 2893 2892 2893 2893
2848 2848 2848 2849 2851 2853 2855 2856 2858 2860 2859 2860 2862 2865 2869 2872 2874 2876 2878 2880 2881 2884 2886 2888 2891 2893 2893 2893 2893 2893 2894 2894 2895 2897 2898 2898 2898 2898 2897 2897 2897 2896 2896 2896 2896 2896 2896 2896 2896 2895 2894 2894 2894 2895
2847 2847 2847 2849 2851 2854 2856 2859 2861 2862 2862 2864 2868 2870 2872 2874 2876 2878 2881 2882 2884 2886 2887 2887 2888 2888 2890 2890 2891 2892 2893 2895 2897 2898 2899 2899 2899 2899 2899 2899 2900 2900 2900 2900 2901 2901 2900 2900 2899 2899 2899 2898 2898 2899
2845 2845 2846 2849 2852 2855 2857 2860 2863 2865 2866 2869 2872 2875 2877 2878 2880 2882 2884 2885 2886 2886 2887 2887 2887 2888 2889 2891 2892 2894 2896 2898 2899 2901 2901 2901 2901 2902 2903 2904 2904 2905 2905 2905 2905 2904 2903 2903 2903 2903 2902 2901 2901 2901
2844 2843 2845 2849 2853 2857 2859 2862 2865 2867 2870 2873 2876 2877 2879 2880 2882 2884 2884 2885 2885 2886 2886 2885 2888 2890 2892 2894 2896 2897 2898 2900 2901 2902 2903 2904 2904 2905 2906 2907 2907 2907 2907 2907 2906 2906 2905 2904 2904 2903 2903 2902 2902 2901
2845 2845 2846 2850 2854 2857 2860 2864 2867 2869 2873 2876 2877 2879 2881 2883 2884 2885 2886 2887 2887 2887 2886 2890 2892 2895 2896 2898 2899 2900 2901 2902 2903 2904 2905 2905 2905 2906 2906 2907 2907 2907 2907 2907 2906 2906 2905 2905 2904 2903 2902 2902 2901 2900
2847 2847 2848 2851 2855 2859 2861 2864 2867 2872 2875 2878 2881 2884 2884 2886 2887 2888 2887 2889 2892 2889 2890 2894 2897 2899 2900 2902 2902 2903 2904 2904 2905 2905 2906 2906 2907 2907 2907 2907 2907 2907 2906 2906 2906 2905 2904 2903 2902 2901 2901 2900 2899 2897
2850 2851 2852 2855 2857 2861 2865 2868 2871 2874 2879 2882 2884 2886 2888 2890 2892 2894 2896 2895 2892 2896 2898 2899 2902 2903 2904 2905 2906 2906 2906 2906 2906 2907 2907 2907 2907 2907 2906 2906 2906 2905 2905 2904 2903 2902 2901 2900 2899 2898 2897 2896 2895 2893
2857 2860 2861 2861 2863 2869 2875 2875 2877 2879 2884 2887 2889 2891 2895 2896 2898 2900 2900 2899 2899 2902 2904 2905 2906 2907 2908 2908 2909 2909 2909 2909 2908 2908 2908 2908 2907 2907 2906 2905 2905 2904 2903 2902 2901 2900 2899 2898 2897 2895 2894 2893 2891 2889
2864 2866 2865 2867 2870 2875 2878 2880 2882 2884 2888 2891 2893 2895 2898 2900 2902 2903 2903 2904 2906 2907 2908 2909 2910 2910 2911 2911 2911 2910 2910 2910 2909 2909 2908 2907 2906 2905 2904 2903 2903 2902 2901 2900 2899 2897 2896 2895 2893 2892 2891 2889 2888 2887
2869 2870 2872 2875 2877 2880 2882 2884 2886 2888 2891 2894 2896 2898 2901 2903 2905 2906 2908 2909 2909 2910 2910 2911 2911 2911 2911 2910 2910 2910 2909 2909 2908 2907 2906 2905 2904 2903 2902 2901 2900 2899 2898 2897 2896 2894 2893 2891 2890 2889 2888 2887 2886 2884
2868 2871 2874 2876 2880 2883 2884 2888 2891 2893 2895 2897 2900 2902 2904 2905 2906 2908 2910 2910 2911 2911 2911 2911 2911 2911 2910 2910 2909 2908 2907 2906 2905 2904 2903 2902 2901 2900 2898 2897 2896 2895 2894 2893 2892 2891 2890 2889 2888 2887 2886 2885 2883 2882
2869 2871 2874 2877 2880 2884 2887 2891 2894 2896 2897 2899 2901 2902 2904 2905 2907 2909 2909 2910 2911 2911 2910 2910 2910 2909 2909 2908 2907 2906 2905 2904 2903 2902 2900 2899 2898 2897 2896 2894 2893 2892 2890 2889 2888 2888 2888 2887 2886 2885 2884 2882 2881 2879
2869 2872 2876 2881 2884 2887 2889 2892 2895 2897 2898 2900 2902 2903 2904 2905 2907 2909 2909 2910 2910 2910 2910 2910 2909 2908 2907 2905 2904 2903 2903 2902 2901 2899 2898 2897 2895 2894 2893 2892 2890 2889 2888 2888 2887 2887 2886 2885 2884 2883 2881 2879 2877 2875
2871 2874 2879 2882 2886 2889 2892 2894 2895 2897 2899 2901 2902 2903 2904 2905 2907 2908 2909 2910 2910 2910 2909 2909 2908 2907 2906 2905 2904 2903 2901 2900 2899 2898 2896 2895 2894 2893 2891 2890 2889 2888 2887 2886 2886 2885 2884 2883 2881 2880 2878 2876 2875 2873
2873 2876 2880 2884 2887 2890 2893 2895 2897 2899 2900 2902 2904 2905 2905 2906 2908 2909 2910 2910 2910 2910 2909 2908 2907 2906 2905 2904 2903 2902 2900 2898 2897 2896 2894 2893 2892 2891 2889 2888 2887 2886 2886 2885 2884 2883 2882 2881 2879 2877 2875 2873 2871 2869
2874 2878 2882 2885 2887 2891 2893 2896 2898 2900 2903 2904 2905 2907 2908 2908 2909 2910 2910 2910 2910 2909 2908 2907 2906 2905 2904 2903 2902 2901 2899 2898 2896 2894 2893 2892 2890 2889 2888 2887 2886 2885 2884 2883 2882 2881 2879 2878 2876 2874 2872 2870 2868 2865
2877 2880 2883 2885 2889 2892 2895 2898 2900 2902 2904 2905 2907 2908 2909 2910 2910 2911 2910 2910 2909 2908 2907 2906 2905 2904 2903 2902 2900 2898 2897 2895 2894 2892 2891 2890 2889 2887 2886 2885 2884 2883 2882 2881 2879 2878 2877 2875 2873 2871 2869 2866 2864 2861
2880 2884 2887 2888 2890 2894 2897 2899 2901 2903 2905 2907 2908 2908 2909 2910 2910 2910 2909 2908 2908 2907 2906 2905 2904 2902 2901 2899 2898 2896 2895 2893 2892 2890 2889 2888 2887 2885 2884 2883 2882 2881 2879 2878 2876 2875 2873 2872 2870 2867 2865 2862 2860 2857
Wind_Speed
24 27 33 28 26 25 26 30 28 29 30 34 36 38 38 39 42 44 49 52 53 47 34 34 39 39 40 33 32 27 23 22 22 26 21 17 12 9 14 19 12 9 11 12 16 9 12 1 6 5 14 19 17 22
29 27 26 22 22 22 23 22 25 26 29 29 28 35 37 34 37 42 44 49 52 50 29 38 43 30 31 30 29 31 28 18 18 17 19 10 16 11 14 10 19 22 24 15 17 15 11 9 12 18 22 25 16 20
25 25 20 21 21 22 22 20 23 26 28 31 31 28 31 39 37 44 45 45 46 43 40 29 21 24 27 26 25 26 25 26 16 15 21 15 15 7 15 19 19 19 14 23 22 29 22 19 21 33 34 30 26 20
23 19 19 21 19 17 16 16 19 26 25 29 31 28 30 35 39 41 43 44 43 38 32 29 33 14 19 19 26 24 19 21 23 19 22 23 18 15 17 19 21 14 17 24 31 29 30 25 26 31 27 29 22 22
19 18 18 20 18 12 12 12 16 20 29 28 32 33 28 31 37 35 31 33 36 30 4 19 33 30 17 19 26 28 26 24 23 25 23 22 24 25 27 24 21 20 24 27 28 26 28 27 23 24 26 21 19 16
16 18 20 19 9 14 10 7 12 18 26 30 32 34 35 32 33 32 28 26 26 22 23 12 3 31 36 24 26 31 32 29 29 29 28 27 25 19 17 29 32 32 27 28 30 31 33 34 31 28 21 22 20 26
16 21 22 21 20 17 15 8 9 22 29 35 31 31 34 35 35 38 30 24 26 21 15 14 14 16 31 33 28 36 36 36 30 22 26 23 24 22 26 26 25 25 31 33 33 37 34 30 26 22 21 15 18 21
16 23 25 31 25 27 26 24 24 31 34 34 35 32 36 36 34 28 27 21 14 27 22 7 7 18 33 38 20 21 15 16 20 21 25 20 12 13 11 17 22 21 21 22 25 30 32 29 23 22 20 18 20 22
14 18 27 35 34 31 32 30 31 36 34 34 38 36 32 40 32 23 18 13 15 25 21 17 21 11 23 27 28 25 23 19 21 23 25 19 19 14 23 27 27 23 19 19 26 28 30 29 20 18 20 18 19 23
13 12 17 23 34 31 29 32 35 36 34 36 37 39 35 27 25 20 19 20 18 22 16 16 14 17 29 32 31 26 27 23 7 17 17 23 26 28 32 31 22 21 23 21 20 21 24 22 24 23 25 26 25 26
11 13 12 18 17 24 30 25 26 37 36 38 33 37 32 32 28 19 13 9 9 6 5 8 12 25 22 26 24 13 9 8 6 9 14 9 15 29 31 29 25 26 27 25 21 18 19 20 21 22 23 26 26 26
10 11 13 14 19 17 23 24 27 29 27 37 39 43 36 24 8 5 7 7 7 7 12 15 15 18 19 18 12 11 6 5 5 9 10 9 17 19 22 24 27 26 25 23 22 18 17 18 20 24 28 27 23 22
7 8 7 7 9 14 19 28 28 29 33 29 33 25 10 4 5 4 5 8 10 19 21 19 19 16 15 13 7 5 6 8 6 7 9 11 11 14 16 19 21 24 24 23 24 23 20 22 23 25 27 27 25 25
7 7 8 9 10 15 26 32 29 22 18 11 7 8 5 4 5 9 15 16 17 17 21 21 20 15 13 14 7 6 9 8 6 5 5 5 7 9 10 13 14 14 15 14 14 16 17 17 16 16 15 13 12 13
6 5 5 9 12 14 19 19 15 14 7 4 5 4 7 15 21 20 17 15 14 14 11 15 18 9 12 6 7 7 5 4 3 5 7 6 4 4 5 6 8 8 8 8 7 7 7 6 4 3 2 2 2 2
4 2 5 9 13 17 19 16 9 5 6 4 5 17 21 20 20 18 16 13 12 9 12 13 10 5 7 5 5 4 3 3 5 7 4 2 2 2 1 1 2 3 4 6 8 8 9 9 9 9 11 11 10 9
8 5 7 11 14 15 18 19 14 3 5 9 15 19 18 17 15 13 13 10 9 7 9 5 6 5 4 3 4 3 3 11 10 6 4 4 4 5 8 9 11 13 13 13 13 12 12 12 12 10 8 11 10 10
8 2 12 14 17 19 16 14 12 6 18 20 18 17 15 13 11 9 7 5 2 1 3 4 3 3 3 3 9 15 13 11 9 7 7 7 9 11 13 13 13 12 11 11 10 10 10 9 7 5 7 8 7 5
4 4 16 18 20 18 13 9 10 12 16 15 15 12 10 8 6 5 3 3 4 2 2 3 7 17 21 20 18 16 14 13 10 9 9 10 11 12 11 10 8 7 6 5 5 5 4 4 3 3 4 5 6 8
4 7 17 22 20 17 8 7 9 12 13 13 12 11 9 8 6 5 5 5 5 10 28 29 29 25 23 21 19 17 16 15 13 11 10 10 10 10 8 6 5 4 3 2 1 1 1 3 4 6 8 10 10 11
12 13 16 22 21 15 7 11 12 18 17 16 16 13 16 15 11 11 17 26 28 29 33 29 25 23 20 17 16 15 13 12 11 10 8 6 5 5 5 4 3 3 2 2 4 6 8 9 10 11 11 12 12 13
14 15 13 16 21 19 13 15 19 22 22 23 22 22 23 24 27 28 27 24 29 28 25 22 18 16 13 11 8 7 6 5 5 4 3 1 0 1 2 3 4 6 7 9 10 10 11 11 12 12 13 14 14 15
26 24 28 29 23 17 25 30 28 29 24 30 30 28 27 27 24 20 18 23 24 21 18 15 12 10 8 5 3 2 2 3 3 2 3 5 6 7 8 9 10 10 10 10 11 11 12 12 13 14 14 14 14 13
15 10 10 7 11 19 25 26 29 28 26 25 25 24 22 22 19 19 20 18 16 14 12 9 7 5 4 2 1 1 2 3 4 5 6 7 8 9 9 10 10 10 10 10 10 11 12 12 13 13 12 10 9 8
7 7 11 22 16 21 20 22 26 27 29 27 24 21 17 15 14 15 13 12 10 9 8 5 3 2 1 1 2 3 5 6 7 8 9 9 8 8 8 9 9 9 10 10 10 10 11 10 9 8 7 7 8 9
4 5 8 12 20 19 20 21 26 25 24 18 16 19 17 10 6 6 9 8 7 6 5 3 2 3 4 5 6 7 8 8 8 8 7 7 8 8 9 9 9 9 10 10 10 9 8 6 6 6 8 9 11 12
5 9 19 22 23 26 24 23 23 17 12 11 17 12 5 4 3 6 7 6 4 4 4 4 5 6 7 7 7 8 8 8 8 8 8 9 8 8 8 9 9 10 10 9 8 7 6 6 7 8 9 11 12 13
11 23 23 23 24 22 24 21 17 11 11 14 10 6 4 4 7 8 6 4 3 2 3 4 6 7 8 8 8 8 8 8 9 9 8 8 9 9 9 9 9 8 7 6 6 6 7 8 10 11 12 13 14 14
24 26 26 25 24 24 20 18 10 13 13 11 10 9 11 11 9 7 5 3 2 2 3 4 5 6 6 7 7 8 9 9 10 10 11 11 10 10 9 8 7 6 5 6 6 7 9 10 12 12 12 13 14 14
29 30 29 27 25 21 17 17 16 15 15 13 10 10 10 10 8 6 4 2 2 2 3 4 5 5 5 6 8 9 10 12 12 12 12 12 11 10 9 8 6 6 6 7 8 10 11 12 12 12 13 14 15 17
32 30 28 26 24 23 21 20 18 16 14 14 13 11 9 9 8 5 3 2 2 3 4 5 5 6 6 7 9 10 11 11 12 11 11 11 10 9 8 7 7 8 9 10 10 12 12 12 13 14 14 15 17 18
29 27 26 24 25 24 23 21 18 16 14 12 11 10 9 7 6 4 3 2 3 4 5 6 6 8 9 10 11 12 12 12 11 12 12 11 11 10 9 9 9 10 11 12 12 13 12 12 13 14 15 17 18 20
23 24 23 24 26 24 22 21 19 15 12 12 9 8 6 5 4 4 4 5 5 6 7 8 9 9 10 11 12 12 12 12 13 13 12 12 12 11 11 10 10 11 11 12 12 12 13 14 15 16 18 19 20 22
Wind_Direction
307 296 303 300 292 285 275 262 255 246 241 233 226 219 214 213 209 206 213 216 216 226 226 227 232 234 234 232 238 243 235 231 229 231 232 236 237 237 241 240 237 219 206 210 225 231 264 201 352 351 336 288 266 256
308 306 305 303 299 296 277 258 250 242 234 220 227 214 204 203 203 201 213 218 218 218 224 234 240 243 248 251 252 242 247 235 227 217 223 215 222 218 230 232 230 239 234 248 236 240 246 263 297 309 319 311 314 328
319 318 311 307 308 292 284 259 243 234 227 216 216 209 202 193 194 199 209 213 219 224 229 225 207 216 230 227 213 233 235 219 219 233 247 246 228 220 228 247 250 239 237 235 250 246 244 249 266 286 296 301 303 298
331 327 325 324 318 307 288 269 241 224 217 211 208 199 197 198 199 201 207 215 217 221 223 224 209 200 204 203 208 214 215 212 219 240 232 230 235 247 249 256 256 251 252 255 258 267 272 265 282 283 283 277 281 274
342 344 342 333 323 322 298 270 240 219 208 208 202 194 191 188 187 192 201 211 216 216 218 239 234 225 196 209 207 203 202 207 221 230 233 242 249 252 257 261 262 257 251 248 260 276 279 287 300 294 284 257 253 268
1 0 358 0 351 335 344 297 231 207 190 185 179 174 179 180 179 182 198 212 207 213 225 249 311 221 228 223 202 205 202 209 220 230 235 242 248 259 267 271 269 257 256 248 254 261 266 277 283 302 284 255 262 270
24 27 25 25 32 26 9 332 225 185 176 176 172 167 167 168 174 177 192 199 186 198 218 235 253 249 211 222 210 204 201 211 212 209 230 244 268 268 266 269 267 254 244 245 253 263 268 279 278 270 278 279 276 270
47 49 47 45 51 38 45 65 105 139 148 161 164 161 161 163 178 192 201 217 212 198 205 212 226 200 193 196 203 199 222 239 235 230 239 253 253 255 256 255 264 274 260 255 261 268 269 274 260 263 277 273 279 280
56 72 51 59 48 49 56 87 97 125 133 141 146 148 151 172 149 126 161 186 192 198 211 231 244 147 196 204 206 220 216 210 225 239 244 243 251 239 248 259 264 262 254 258 263 265 262 265 265 259 261 275 279 279
58 75 69 64 61 62 69 89 104 122 131 134 140 141 143 150 155 149 147 145 166 189 213 222 211 148 171 186 183 199 214 224 227 238 240 235 241 245 247 253 252 252 250 262 288 272 265 268 269 272 275 275 277 275
85 83 71 62 89 86 100 99 113 127 128 135 134 139 136 137 144 136 144 155 159 166 175 138 138 167 170 174 175 175 175 199 217 218 206 223 231 238 247 253 249 250 255 259 261 283 273 263 262 269 270 273 273 271
96 99 88 81 93 94 114 113 118 125 120 131 123 139 144 141 152 92 117 127 126 139 147 143 163 170 170 171 179 194 180 206 227 197 210 233 240 248 248 251 252 255 259 259 251 262 277 268 267 273 272 273 274 273
89 95 106 101 104 104 135 116 126 123 125 107 121 122 133 152 113 126 116 118 140 164 165 152 151 155 166 175 180 180 210 214 232 215 199 222 236 244 251 255 254 255 260 260 256 264 270 273 271 277 278 278 279 275
107 112 114 118 104 126 126 122 115 124 124 121 104 115 132 137 110 125 128 137 148 162 170 174 180 174 175 184 178 202 211 210 213 200 186 201 227 245 251 251 249 249 252 257 260 267 274 275 278 280 284 282 278 274
67 99 123 135 144 132 148 121 105 126 153 127 111 108 98 118 123 126 130 133 136 139 154 177 185 177 185 185 199 214 204 189 157 165 176 196 222 238 241 249 248 237 235 242 251 259 267 271 270 257 174 119 101 101
36 55 162 162 162 163 167 168 158 92 68 70 94 116 127 126 128 133 129 133 132 145 162 161 180 200 206 214 188 178 179 173 163 152 135 82 5 4 38 74 76 94 123 127 120 113 111 106 104 102 101 101 98 95
354 344 176 161 163 163 172 189 180 159 25 102 116 125 126 132 141 142 145 148 151 152 180 187 191 182 178 180 144 142 126 119 115 109 91 65 63 80 87 93 101 99 96 94 94 95 95 89 85 89 98 96 92 90
336 26 160 154 157 148 145 147 154 108 116 117 123 125 122 131 131 132 126 127 159 255 305 301 156 154 103 79 107 111 106 103 101 91 77 78 89 93 94 92 89 87 85 83 81 76 72 70 66 65 72 79 69 46
347 33 159 168 161 162 144 129 130 127 120 120 123 125 122 110 110 108 94 81 70 81 182 126 85 102 107 106 106 105 106 104 102 101 105 111 113 112 111 109 107 102 95 85 77 73 76 77 57 38 17 355 342 331
160 106 155 169 165 173 165 123 128 123 119 111 112 114 123 123 108 91 90 99 86 104 106 108 106 106 107 107 107 108 109 110 111 111 117 125 130 135 138 142 143 150 150 152 163 221 281 300 304 309 316 320 317 315
94 97 142 167 172 173 142 137 120 128 123 119 118 117 108 95 93 96 100 108 119 103 99 99 99 99 100 101 102 106 109 115 118 120 127 134 145 152 156 170 187 201 218 260 287 298 304 315 320 318 313 313 314 314
95 88 104 147 159 130 109 116 129 124 123 123 124 117 114 112 113 117 120 112 96 94 96 98 98 96 96 96 97 97 102 101 100 101 101 97 141 283 289 290 293 298 301 305 309 312 310 309 310 312 314 315 315 316
104 104 109 111 106 110 114 119 119 120 122 120 119 116 121 123 125 126 102 99 103 105 105 109 111 108 105 101 94 75 21 346 329 312 304 299 297 296 295 296 297 298 298 300 300 302 303 305 306 308 310 310 312 315
116 112 84 80 106 127 127 126 124 126 129 128 128 126 127 121 116 109 108 107 109 112 116 119 119 123 130 135 120 342 327 321 312 303 299 296 294 294 293 293 295 296 296 297 299 301 302 304 305 306 307 310 315 320
110 81 101 121 127 134 131 133 132 130 130 127 123 120 119 121 116 119 121 118 113 111 110 110 111 108 93 314 322 321 319 316 312 309 308 305 304 302 303 304 303 303 304 306 308 307 306 306 308 313 318 324 328 328
105 117 135 143 141 140 137 136 139 134 133 128 131 131 130 115 100 120 126 118 110 99 92 77 31 355 336 327 323 321 319 318 316 317 317 314 313 309 306 303 304 307 309 311 312 313 315 317 319 322 324 324 325 325
117 130 148 151 150 148 144 144 144 145 142 139 146 137 113 111 121 142 130 114 97 60 32 0 340 333 328 323 321 322 325 327 329 326 323 319 314 312 310 310 311 313 314 314 318 319 320 320 318 318 318 319 322 323
149 147 150 152 151 151 146 145 143 141 142 149 154 145 139 140 143 133 118 96 72 26 356 340 332 325 324 327 329 332 330 326 326 328 330 328 322 318 316 314 311 312 314 314 314 315 315 315 318 320 321 324 325 326
152 150 153 157 156 154 154 157 154 149 143 145 145 138 134 128 121 116 107 88 41 2 344 329 317 315 318 318 319 322 325 328 331 330 327 324 323 320 320 321 320 316 314 310 309 311 313 316 317 320 322 323 323 323
156 157 156 160 160 158 153 143 141 137 132 124 122 125 121 117 112 103 96 78 28 349 325 310 309 311 314 316 319 319 321 322 324 323 322 321 322 320 318 319 313 304 301 302 306 310 313 315 316 318 320 323 324 324
161 159 163 163 159 153 149 145 142 136 134 131 128 117 107 103 101 92 75 34 346 323 311 309 313 312 311 308 310 314 315 315 315 314 313 312 310 309 308 306 302 301 302 306 310 312 313 315 317 319 321 321 321 322
165 165 167 164 157 154 150 148 143 140 136 129 123 118 110 99 94 72 37 10 333 319 315 313 310 308 314 317 317 318 318 319 316 313 310 307 307 307 307 306 304 304 306 309 311 313 314 315 317 318 318 320 322 323
160 165 170 162 156 155 154 149 142 139 138 130 124 113 103 86 73 24 5 354 336 319 314 310 311 314 313 312 315 318 318 317 314 309 307 305 303 303 305 306 306 306 307 309 311 314 316 318 318 319 321 322 323 324